,,Stat6,,Stat2,,Stat8,,Stat9,,Stat10,,Wind1,,Wind1,
time,status,PA1M_AVG,status,PR1M_SUM,status,RH1M_AVG,status,SR1M_AVG,status,TA1M_AVG,status,W1dAve1m,status,W1sAve1m,
2007-03-23, 00:00:00,VALID,919.745,VALID,0,VALID,100,VALID,0,VALID,20.8259,VALID,189,VALID,0.832775,
2007-03-23, 00:01:00,VALID,919.72,VALID,0,VALID,100,VALID,0,VALID,20.8259,VALID,189,VALID,0.847834,
2007-03-23, 00:02:00,VALID,919.716,VALID,0,VALID,100,VALID,0,VALID,20.8259,VALID,189,VALID,0.775391,
2007-03-23, 00:03:00,VALID,919.707,VALID,0,VALID,100,VALID,-0.0169808,VALID,20.8359,VALID,189,VALID,0.658067,
2007-03-23, 00:04:00,VALID,919.714,VALID,0,VALID,100,VALID,-0.0169808,VALID,20.8424,VALID,191,VALID,0.419567,
2007-03-23, 00:05:00,VALID,919.708,VALID,0,VALID,100,VALID,-0.0169808,VALID,20.8319,VALID,192,VALID,0.481771,
2007-03-23, 00:06:00,VALID,919.709,VALID,0,VALID,100,VALID,0,VALID,20.8389,VALID,192,VALID,0.187318,
2007-03-23, 00:07:00,VALID,919.716,VALID,0,VALID,100,VALID,0.0169808,VALID,20.8291,VALID,192,VALID,0.0834604,
2007-03-23, 00:08:00,VALID,919.712,VALID,0,VALID,100,VALID,0,VALID,20.8286,VALID,192,VALID,0,
2007-03-23, 00:09:00,VALID,919.703,VALID,0,VALID,99.988,VALID,0.0339617,VALID,20.8397,VALID,192,VALID,0,
2007-03-23, 00:10:00,VALID,919.686,VALID,0,VALID,99.9799,VALID,0,VALID,20.8256,VALID,192,VALID,0,
2007-03-23, 00:11:00,VALID,919.682,VALID,0,VALID,99.943,VALID,0,VALID,20.8189,VALID,192,VALID,0,
2007-03-23, 00:12:00,VALID,919.665,VALID,0,VALID,99.8438,VALID,0,VALID,20.8059,VALID,192,VALID,0,
2007-03-23, 00:13:00,VALID,919.654,VALID,0,VALID,99.8082,VALID,0,VALID,20.8062,VALID,192,VALID,0,
2007-03-23, 00:14:00,VALID,919.658,VALID,0,VALID,99.718,VALID,0,VALID,20.7932,VALID,192,VALID,0,
2007-03-23, 00:15:00,VALID,919.655,VALID,0,VALID,99.7052,VALID,0.0169808,VALID,20.7799,VALID,192,VALID,0,
2007-03-23, 00:16:00,VALID,919.665,VALID,0,VALID,99.6671,VALID,0.0169808,VALID,20.7669,VALID,192,VALID,0.130859,
2007-03-23, 00:17:00,VALID,919.683,VALID,0,VALID,99.8718,VALID,0.0169808,VALID,20.7867,VALID,192,VALID,0.549183,
2007-03-23, 00:18:00,VALID,919.69,VALID,0,VALID,99.9977,VALID,0.0339617,VALID,20.7994,VALID,162,VALID,0.672743,
2007-03-23, 00:19:00,VALID,919.695,VALID,0,VALID,99.9931,VALID,0.0169808,VALID,20.8089,VALID,160,VALID,0.557958,
2007-03-23, 00:20:00,VALID,919.709,VALID,0,VALID,99.9903,VALID,0,VALID,20.8226,VALID,144,VALID,0.65904,
2007-03-23, 00:21:00,VALID,919.723,VALID,0,VALID,99.8502,VALID,0,VALID,20.8026,VALID,128,VALID,0.626172,
2007-03-23, 00:22:00,VALID,919.724,VALID,0,VALID,99.8146,VALID,0.0169808,VALID,20.7637,VALID,120,VALID,0.668164,
2007-03-23, 00:23:00,VALID,919.731,VALID,0,VALID,99.896,VALID,0.0339617,VALID,20.7407,VALID,105,VALID,0.841273,
2007-03-23, 00:24:00,VALID,919.746,VALID,0,VALID,100,VALID,0.0169808,VALID,20.7312,VALID,94,VALID,0.840909,
2007-03-23, 00:25:00,VALID,919.73,VALID,0,VALID,100,VALID,0,VALID,20.715,VALID,84,VALID,1.08714,
2007-03-23, 00:26:00,VALID,919.732,VALID,0,VALID,100,VALID,0,VALID,20.719,VALID,105,VALID,0.980469,
2007-03-23, 00:27:00,VALID,919.714,VALID,0,VALID,100,VALID,0.0339617,VALID,20.6955,VALID,114,VALID,1.11719,
2007-03-23, 00:28:00,VALID,919.703,VALID,0,VALID,100,VALID,0,VALID,20.6531,VALID,115,VALID,1.0597,
2007-03-23, 00:29:00,VALID,919.692,VALID,0,VALID,100,VALID,-0.0339617,VALID,20.6117,VALID,115,VALID,0.898996,
2007-03-23, 00:30:00,VALID,919.677,VALID,0,VALID,100,VALID,-0.0679233,VALID,20.5938,VALID,108,VALID,0.864025,
2007-03-23, 00:31:00,VALID,919.657,VALID,0,VALID,100,VALID,-0.101885,VALID,20.5705,VALID,115,VALID,1.03888,
2007-03-23, 00:32:00,VALID,919.64,VALID,0,VALID,100,VALID,-0.101885,VALID,20.5681,VALID,115,VALID,0.842297,
2007-03-23, 00:33:00,VALID,919.631,VALID,0,VALID,100,VALID,-0.0849042,VALID,20.5481,VALID,117,VALID,1.00218,
2007-03-23, 00:34:00,VALID,919.598,VALID,0,VALID,100,VALID,-0.0509425,VALID,20.5448,VALID,134,VALID,1.08066,
2007-03-23, 00:35:00,VALID,919.57,VALID,0,VALID,100,VALID,-0.101885,VALID,20.5348,VALID,143,VALID,1.2571,
2007-03-23, 00:36:00,VALID,919.555,VALID,0,VALID,100,VALID,-0.101885,VALID,20.5313,VALID,154,VALID,1.05741,
2007-03-23, 00:37:00,VALID,919.529,VALID,0,VALID,100,VALID,-0.101885,VALID,20.5448,VALID,153,VALID,0.831641,
2007-03-23, 00:38:00,VALID,919.516,VALID,0,VALID,100,VALID,-0.0849042,VALID,20.5486,VALID,149,VALID,0.993823,
2007-03-23, 00:39:00,VALID,919.491,VALID,0,VALID,100,VALID,-0.101885,VALID,20.5318,VALID,147,VALID,0.792683,
2007-03-23, 00:40:00,VALID,919.473,VALID,0,VALID,100,VALID,-0.118866,VALID,20.5253,VALID,134,VALID,0.917361,
2007-03-23, 00:41:00,VALID,919.459,VALID,0,VALID,100,VALID,-0.118866,VALID,20.5386,VALID,125,VALID,1.05859,
2007-03-23, 00:42:00,VALID,919.434,VALID,0,VALID,100,VALID,-0.101885,VALID,20.5286,VALID,118,VALID,0.820135,
2007-03-23, 00:43:00,VALID,919.421,VALID,0,VALID,100,VALID,-0.118866,VALID,20.5491,VALID,111,VALID,0.684775,
2007-03-23, 00:44:00,VALID,919.407,VALID,0,VALID,100,VALID,-0.135847,VALID,20.5453,VALID,106,VALID,0.673874,
2007-03-23, 00:45:00,VALID,919.378,VALID,0,VALID,100,VALID,-0.101885,VALID,20.5443,VALID,110,VALID,0.819222,
2007-03-23, 00:46:00,VALID,919.369,VALID,0,VALID,100,VALID,-0.101885,VALID,20.5511,VALID,111,VALID,0.49891,
2007-03-23, 00:47:00,VALID,919.386,VALID,0,VALID,100,VALID,-0.0849042,VALID,20.5608,VALID,111,VALID,0.528525,
2007-03-23, 00:48:00,VALID,919.376,VALID,0,VALID,100,VALID,-0.0679233,VALID,20.5773,VALID,118,VALID,0.545351,
2007-03-23, 00:49:00,VALID,919.393,VALID,0,VALID,100,VALID,-0.0849042,VALID,20.5803,VALID,118,VALID,0.424306,
2007-03-23, 00:50:00,VALID,919.395,VALID,0,VALID,100,VALID,-0.101885,VALID,20.597,VALID,118,VALID,0.491257,
2007-03-23, 00:51:00,VALID,919.391,VALID,0,VALID,100,VALID,-0.0679233,VALID,20.6062,VALID,114,VALID,0.414258,
2007-03-23, 00:52:00,VALID,919.391,VALID,0,VALID,100,VALID,-0.118866,VALID,20.6097,VALID,108,VALID,0.444957,
2007-03-23, 00:53:00,VALID,919.388,VALID,0,VALID,100,VALID,-0.0679233,VALID,20.6219,VALID,90,VALID,0.514881,
2007-03-23, 00:54:00,VALID,919.384,VALID,0,VALID,100,VALID,-0.0339617,VALID,20.6322,VALID,85,VALID,0.513715,
2007-03-23, 00:55:00,VALID,919.37,VALID,0,VALID,100,VALID,-0.101885,VALID,20.6552,VALID,80,VALID,0.533727,
2007-03-23, 00:56:00,VALID,919.365,VALID,0,VALID,100,VALID,-0.0849042,VALID,20.6749,VALID,80,VALID,0.426781,
2007-03-23, 00:57:00,VALID,919.361,VALID,0,VALID,100,VALID,-0.0679233,VALID,20.6739,VALID,80,VALID,0.481468,
2007-03-23, 00:58:00,VALID,919.346,VALID,0,VALID,100,VALID,-0.0509425,VALID,20.6801,VALID,80,VALID,0.401228,
2007-03-23, 00:59:00,VALID,919.348,VALID,0,VALID,100,VALID,-0.0679233,VALID,20.6809,VALID,80,VALID,0.483103,
2007-03-23, 01:00:00,VALID,919.338,VALID,0,VALID,100,VALID,-0.0339617,VALID,20.6711,VALID,80,VALID,0.497332,
2007-03-23, 01:01:00,VALID,919.313,VALID,0,VALID,100,VALID,-0.0509425,VALID,20.6644,VALID,106,VALID,0.662246,
2007-03-23, 01:02:00,VALID,919.29,VALID,0,VALID,100,VALID,-0.0849042,VALID,20.6676,VALID,122,VALID,0.659226,
2007-03-23, 01:03:00,VALID,919.274,VALID,0,VALID,100,VALID,-0.0509425,VALID,20.6776,VALID,122,VALID,0.481468,
2007-03-23, 01:04:00,VALID,919.263,VALID,0,VALID,100,VALID,-0.0339617,VALID,20.6871,VALID,122,VALID,0.612926,
2007-03-23, 01:05:00,VALID,919.263,VALID,0,VALID,100,VALID,-0.0849042,VALID,20.7033,VALID,122,VALID,0.302344,
2007-03-23, 01:06:00,VALID,919.252,VALID,0,VALID,100,VALID,-0.0339617,VALID,20.7198,VALID,122,VALID,0.158967,
2007-03-23, 01:07:00,VALID,919.258,VALID,0,VALID,100,VALID,-0.0339617,VALID,20.709,VALID,122,VALID,0.463986,
2007-03-23, 01:08:00,VALID,919.243,VALID,0,VALID,100,VALID,-0.0169808,VALID,20.7061,VALID,122,VALID,0.520198,
2007-03-23, 01:09:00,VALID,919.255,VALID,0,VALID,100,VALID,-0.0169808,VALID,20.7193,VALID,122,VALID,0.169567,
2007-03-23, 01:10:00,VALID,919.232,VALID,0,VALID,100,VALID,-0.0509425,VALID,20.7253,VALID,122,VALID,0.2883,
2007-03-23, 01:11:00,VALID,919.217,VALID,0,VALID,100,VALID,-0.0169808,VALID,20.7223,VALID,122,VALID,0.40625,
2007-03-23, 01:12:00,VALID,919.204,VALID,0,VALID,100,VALID,-0.0339617,VALID,20.7288,VALID,122,VALID,0.494318,
2007-03-23, 01:13:00,VALID,919.19,VALID,0,VALID,100,VALID,-0.0169808,VALID,20.735,VALID,122,VALID,0.562305,
2007-03-23, 01:14:00,VALID,919.172,VALID,0,VALID,100,VALID,-0.0679233,VALID,20.752,VALID,122,VALID,0.610465,
2007-03-23, 01:15:00,VALID,919.141,VALID,0,VALID,100,VALID,-0.0679233,VALID,20.7518,VALID,122,VALID,0.693132,
2007-03-23, 01:16:00,VALID,919.126,VALID,0,VALID,100,VALID,-0.0679233,VALID,20.7488,VALID,122,VALID,0.591546,
2007-03-23, 01:17:00,VALID,919.102,VALID,0,VALID,100,VALID,-0.0509425,VALID,20.762,VALID,122,VALID,0.677326,
2007-03-23, 01:18:00,VALID,919.087,VALID,0,VALID,100,VALID,0,VALID,20.7685,VALID,115,VALID,0.613477,
2007-03-23, 01:19:00,VALID,919.07,VALID,0,VALID,100,VALID,-0.0339617,VALID,20.7583,VALID,106,VALID,0.515067,
2007-03-23, 01:20:00,VALID,919.037,VALID,0,VALID,100,VALID,-0.0509425,VALID,20.7645,VALID,108,VALID,0.408913,
2007-03-23, 01:21:00,VALID,919.025,VALID,0,VALID,100,VALID,-0.0509425,VALID,20.778,VALID,108,VALID,0.299107,
2007-03-23, 01:22:00,VALID,919.02,VALID,0,VALID,100,VALID,-0.0509425,VALID,20.7945,VALID,108,VALID,0.23787,
2007-03-23, 01:23:00,VALID,919.007,VALID,0,VALID,100,VALID,-0.0849042,VALID,20.8002,VALID,108,VALID,0.00563227,
2007-03-23, 01:24:00,VALID,918.999,VALID,0,VALID,100,VALID,-0.0169808,VALID,20.8299,VALID,108,VALID,0.00130208,
2007-03-23, 01:25:00,VALID,919.004,VALID,0,VALID,100,VALID,-0.0169808,VALID,20.8426,VALID,108,VALID,0.205124,
2007-03-23, 01:26:00,VALID,919.012,VALID,0,VALID,100,VALID,-0.0339617,VALID,20.8426,VALID,108,VALID,0.327431,
2007-03-23, 01:27:00,VALID,918.993,VALID,0,VALID,100,VALID,-0.0509425,VALID,20.8429,VALID,174,VALID,0.565874,
2007-03-23, 01:28:00,VALID,918.984,VALID,0,VALID,100,VALID,-0.0679233,VALID,20.8002,VALID,228,VALID,0.721217,
2007-03-23, 01:29:00,VALID,918.961,VALID,0,VALID,100,VALID,-0.0339617,VALID,20.778,VALID,240,VALID,0.69112,
2007-03-23, 01:30:01,VALID,918.947,VALID,0,VALID,100,VALID,-0.0169808,VALID,20.742,VALID,242,VALID,0.836664,
2007-03-23, 01:31:00,VALID,918.916,VALID,0,VALID,100,VALID,-0.0509425,VALID,20.7131,VALID,245,VALID,0.639482,
2007-03-23, 01:32:00,VALID,918.885,VALID,0,VALID,100,VALID,-0.0679233,VALID,20.6906,VALID,245,VALID,0.501359,
2007-03-23, 01:33:00,VALID,918.861,VALID,0,VALID,100,VALID,-0.0849042,VALID,20.6674,VALID,245,VALID,0.129808,
2007-03-23, 01:34:00,VALID,918.85,VALID,0,VALID,100,VALID,-0.0679233,VALID,20.6646,VALID,245,VALID,0,
2007-03-23, 01:35:00,VALID,918.842,VALID,0,VALID,100,VALID,-0.0509425,VALID,20.6741,VALID,245,VALID,0.0625,
2007-03-23, 01:36:00,VALID,918.83,VALID,0,VALID,100,VALID,-0.0849042,VALID,20.6839,VALID,246,VALID,0.174826,
2007-03-23, 01:37:01,VALID,918.799,VALID,0,VALID,100,VALID,-0.0509425,VALID,20.6939,VALID,262,VALID,0.223438,
2007-03-23, 01:38:00,VALID,918.774,VALID,0,VALID,100,VALID,-0.0849042,VALID,20.6898,VALID,262,VALID,0.271949,
2007-03-23, 01:39:00,VALID,918.744,VALID,0,VALID,100,VALID,-0.0679233,VALID,20.6936,VALID,232,VALID,0.342842,
2007-03-23, 01:40:00,VALID,918.704,VALID,0,VALID,100,VALID,-0.0849042,VALID,20.6839,VALID,207,VALID,0.529978,
2007-03-23, 01:41:01,VALID,918.674,VALID,0,VALID,100,VALID,-0.0679233,VALID,20.6639,VALID,214,VALID,0.478516,
2007-03-23, 01:42:00,VALID,918.644,VALID,0,VALID,100,VALID,-0.0509425,VALID,20.6511,VALID,215,VALID,0.398838,
2007-03-23, 01:43:01,VALID,918.604,VALID,0,VALID,100,VALID,0,VALID,20.6479,VALID,273,VALID,0.362464,
2007-03-23, 01:44:01,VALID,918.569,VALID,0,VALID,100,VALID,0,VALID,20.6406,VALID,251,VALID,0.417225,
2007-03-23, 01:45:00,VALID,918.541,VALID,0,VALID,100,VALID,0.0849042,VALID,20.6263,VALID,253,VALID,0.515067,
2007-03-23, 01:46:00,VALID,918.5,VALID,0,VALID,100,VALID,0.0169808,VALID,20.6109,VALID,245,VALID,0.709201,
2007-03-23, 01:47:00,VALID,918.486,VALID,0,VALID,100,VALID,0.0679233,VALID,20.5709,VALID,244,VALID,0.602471,
2007-03-23, 01:48:00,VALID,918.477,VALID,0,VALID,100,VALID,0.0849042,VALID,20.5747,VALID,267,VALID,0.477307,
2007-03-23, 01:49:00,VALID,918.479,VALID,0,VALID,100,VALID,0.0849042,VALID,20.5722,VALID,259,VALID,0.987043,
2007-03-23, 01:50:00,VALID,918.487,VALID,0,VALID,100,VALID,0.0849042,VALID,20.5617,VALID,268,VALID,0.724382,
2007-03-23, 01:51:00,VALID,918.495,VALID,0,VALID,100,VALID,0.0849042,VALID,20.5452,VALID,267,VALID,0.907252,
2007-03-23, 01:52:00,VALID,918.496,VALID,0,VALID,100,VALID,0.0509425,VALID,20.5495,VALID,253,VALID,0.627663,
2007-03-23, 01:53:01,VALID,918.494,VALID,0,VALID,100,VALID,0.0509425,VALID,20.5295,VALID,255,VALID,0.319586,
2007-03-23, 01:54:00,VALID,918.476,VALID,0,VALID,100,VALID,0.0849042,VALID,20.5322,VALID,255,VALID,0.0474201,
2007-03-23, 01:55:01,VALID,918.471,VALID,0,VALID,100,VALID,0.0509425,VALID,20.5617,VALID,255,VALID,0.0687145,
2007-03-23, 01:56:00,VALID,918.46,VALID,0,VALID,100,VALID,0.0679233,VALID,20.5844,VALID,278,VALID,0.172805,
2007-03-23, 01:57:00,VALID,918.453,VALID,0,VALID,100,VALID,0.0509425,VALID,20.6074,VALID,319,VALID,0.557664,
2007-03-23, 01:58:00,VALID,918.428,VALID,0,VALID,100,VALID,0.0509425,VALID,20.6069,VALID,354,VALID,0.539993,
2007-03-23, 01:59:00,VALID,918.418,VALID,0,VALID,100,VALID,0.0339617,VALID,20.6204,VALID,13,VALID,0.330729,
2007-03-23, 02:00:01,VALID,918.415,VALID,0,VALID,100,VALID,-0.0509425,VALID,20.6249,VALID,13,VALID,0.0565972,
2007-03-23, 02:01:00,VALID,918.404,VALID,0,VALID,100,VALID,-0.0679233,VALID,20.6382,VALID,13,VALID,0.0675781,
2007-03-23, 02:02:00,VALID,918.398,VALID,0,VALID,100,VALID,-0.101885,VALID,20.6482,VALID,13,VALID,0.0658482,
2007-03-23, 02:03:00,VALID,918.39,VALID,0,VALID,100,VALID,-0.0169808,VALID,20.6606,VALID,13,VALID,0,
2007-03-23, 02:04:00,VALID,918.393,VALID,0,VALID,100,VALID,-0.0339617,VALID,20.6771,VALID,13,VALID,0.065625,
2007-03-23, 02:05:01,VALID,918.393,VALID,0,VALID,100,VALID,-0.0679233,VALID,20.6931,VALID,13,VALID,0.0276989,
2007-03-23, 02:06:01,VALID,918.39,VALID,0,VALID,100,VALID,-0.0679233,VALID,20.7058,VALID,13,VALID,0,
2007-03-23, 02:07:01,VALID,918.4,VALID,0,VALID,100,VALID,-0.0509425,VALID,20.7223,VALID,13,VALID,0,
2007-03-23, 02:08:00,VALID,918.389,VALID,0,VALID,100,VALID,-0.0509425,VALID,20.749,VALID,13,VALID,0,
2007-03-23, 02:09:00,VALID,918.382,VALID,0,VALID,100,VALID,-0.0509425,VALID,20.7715,VALID,13,VALID,0.052782,
2007-03-23, 02:10:01,VALID,918.368,VALID,0,VALID,100,VALID,-0.0339617,VALID,20.7807,VALID,13,VALID,0.243886,
2007-03-23, 02:11:00,VALID,918.352,VALID,0,VALID,100,VALID,-0.0509425,VALID,20.7932,VALID,13,VALID,0.238758,
2007-03-23, 02:12:01,VALID,918.345,VALID,0,VALID,100,VALID,-0.0679233,VALID,20.8032,VALID,13,VALID,0.166109,
2007-03-23, 02:13:01,VALID,918.344,VALID,0,VALID,100,VALID,-0.0169808,VALID,20.8289,VALID,13,VALID,0.229421,
2007-03-23, 02:14:00,VALID,918.33,VALID,0,VALID,100,VALID,-0.0339617,VALID,20.8526,VALID,13,VALID,0.0135789,
2007-03-23, 02:15:00,VALID,918.317,VALID,0,VALID,100,VALID,-0.0849042,VALID,20.8519,VALID,13,VALID,0,
2007-03-23, 02:16:00,VALID,918.31,VALID,0,VALID,100,VALID,-0.0679233,VALID,20.8721,VALID,13,VALID,0,
2007-03-23, 02:17:01,VALID,918.29,VALID,0,VALID,100,VALID,-0.0339617,VALID,20.8783,VALID,13,VALID,0,
2007-03-23, 02:18:01,VALID,918.278,VALID,0,VALID,100,VALID,-0.0849042,VALID,20.8786,VALID,13,VALID,0.0954241,
2007-03-23, 02:19:01,VALID,918.275,VALID,0,VALID,100,VALID,-0.0849042,VALID,20.8678,VALID,13,VALID,0.33085,
2007-03-23, 02:20:01,VALID,918.263,VALID,0,VALID,100,VALID,-0.0679233,VALID,20.8743,VALID,15,VALID,0.474653,
2007-03-23, 02:21:01,VALID,918.262,VALID,0,VALID,100,VALID,-0.0169808,VALID,20.8846,VALID,20,VALID,0.724254,
2007-03-23, 02:22:01,VALID,918.264,VALID,0,VALID,100,VALID,-0.0509425,VALID,20.8848,VALID,25,VALID,0.781977,
2007-03-23, 02:23:01,VALID,918.265,VALID,0,VALID,100,VALID,-0.0339617,VALID,20.8748,VALID,43,VALID,0.763725,
2007-03-23, 02:24:01,VALID,918.271,VALID,0,VALID,100,VALID,-0.0339617,VALID,20.8776,VALID,31,VALID,0.744234,
2007-03-23, 02:25:01,VALID,918.267,VALID,0,VALID,100,VALID,-0.0849042,VALID,20.8659,VALID,30,VALID,0.692835,
2007-03-23, 02:26:01,VALID,918.26,VALID,0,VALID,100,VALID,-0.0509425,VALID,20.8494,VALID,30,VALID,0.44186,
2007-03-23, 02:27:01,VALID,918.273,VALID,0,VALID,100,VALID,-0.0169808,VALID,20.8156,VALID,29,VALID,0.181974,
2007-03-23, 02:28:01,VALID,918.258,VALID,0,VALID,100,VALID,-0.0679233,VALID,20.8232,VALID,29,VALID,0.349702,
2007-03-23, 02:29:01,VALID,918.247,VALID,0,VALID,100,VALID,-0.0339617,VALID,20.7907,VALID,29,VALID,0.413715,
2007-03-23, 02:30:01,VALID,918.242,VALID,0,VALID,100,VALID,-0.0509425,VALID,20.7815,VALID,23,VALID,0.386242,
2007-03-23, 02:31:01,VALID,918.227,VALID,0,VALID,100,VALID,-0.0339617,VALID,20.7518,VALID,13,VALID,0.270167,
2007-03-23, 02:32:01,VALID,918.224,VALID,0,VALID,100,VALID,-0.0169808,VALID,20.735,VALID,13,VALID,0.269627,
2007-03-23, 02:33:00,VALID,918.214,VALID,0,VALID,100,VALID,-0.0509425,VALID,20.7296,VALID,13,VALID,0.176367,
2007-03-23, 02:34:00,VALID,918.214,VALID,0,VALID,100,VALID,-0.0339617,VALID,20.7188,VALID,13,VALID,0.113839,
2007-03-23, 02:35:00,VALID,918.211,VALID,0,VALID,100,VALID,-0.0339617,VALID,20.7155,VALID,13,VALID,0.395349,
2007-03-23, 02:36:00,VALID,918.19,VALID,0,VALID,100,VALID,-0.0169808,VALID,20.7258,VALID,13,VALID,0.304306,
2007-03-23, 02:37:00,VALID,918.193,VALID,0,VALID,100,VALID,-0.0679233,VALID,20.7253,VALID,13,VALID,0.301314,
2007-03-23, 02:38:00,VALID,918.185,VALID,0,VALID,100,VALID,-0.0509425,VALID,20.732,VALID,17,VALID,0.388077,
2007-03-23, 02:39:00,VALID,918.174,VALID,0,VALID,100,VALID,-0.0509425,VALID,20.7223,VALID,23,VALID,0.337891,
2007-03-23, 02:40:00,VALID,918.167,VALID,0,VALID,100,VALID,-0.0169808,VALID,20.7055,VALID,23,VALID,0.238917,
2007-03-23, 02:41:00,VALID,918.164,VALID,0,VALID,100,VALID,-0.0849042,VALID,20.7098,VALID,23,VALID,0.368521,
2007-03-23, 02:42:00,VALID,918.147,VALID,0,VALID,100,VALID,-0.0509425,VALID,20.7193,VALID,23,VALID,0.305804,
2007-03-23, 02:43:00,VALID,918.135,VALID,0,VALID,100,VALID,-0.0339617,VALID,20.7023,VALID,23,VALID,0.091654,
2007-03-23, 02:44:00,VALID,918.132,VALID,0,VALID,100,VALID,-0.0849042,VALID,20.7261,VALID,23,VALID,0.0134943,
2007-03-23, 02:45:00,VALID,918.119,VALID,0,VALID,100,VALID,-0.0679233,VALID,20.7388,VALID,23,VALID,0,
2007-03-23, 02:46:00,VALID,918.129,VALID,0,VALID,100,VALID,-0.0509425,VALID,20.7545,VALID,23,VALID,0,
2007-03-23, 02:47:00,VALID,918.107,VALID,0,VALID,100,VALID,-0.0509425,VALID,20.7675,VALID,23,VALID,0.0710392,
2007-03-23, 02:48:00,VALID,918.109,VALID,0,VALID,100,VALID,-0.0339617,VALID,20.761,VALID,23,VALID,0.0252976,
2007-03-23, 02:49:00,VALID,918.11,VALID,0,VALID,100,VALID,-0.0169808,VALID,20.7447,VALID,23,VALID,0.121094,
2007-03-23, 02:50:00,VALID,918.106,VALID,0,VALID,100,VALID,-0.0339617,VALID,20.7318,VALID,23,VALID,0.0779433,
2007-03-23, 02:51:00,VALID,918.096,VALID,0,VALID,100,VALID,-0.0849042,VALID,20.7323,VALID,23,VALID,0,
2007-03-23, 02:52:00,VALID,918.098,VALID,0,VALID,100,VALID,-0.0849042,VALID,20.7118,VALID,23,VALID,0,
2007-03-23, 02:53:00,VALID,918.095,VALID,0,VALID,100,VALID,-0.0679233,VALID,20.7158,VALID,23,VALID,0,
2007-03-23, 02:54:00,VALID,918.094,VALID,0,VALID,100,VALID,-0.0509425,VALID,20.7258,VALID,23,VALID,0,
2007-03-23, 02:55:00,VALID,918.095,VALID,0,VALID,100,VALID,-0.0679233,VALID,20.7253,VALID,23,VALID,0,
2007-03-23, 02:56:00,VALID,918.085,VALID,0,VALID,100,VALID,-0.0339617,VALID,20.7418,VALID,23,VALID,0,
2007-03-23, 02:57:00,VALID,918.071,VALID,0,VALID,100,VALID,-0.0339617,VALID,20.745,VALID,11,VALID,0.104288,
2007-03-23, 02:58:00,VALID,918.073,VALID,0,VALID,100,VALID,-0.0339617,VALID,20.728,VALID,346,VALID,0.145833,
2007-03-23, 02:59:00,VALID,918.065,VALID,0,VALID,100,VALID,-0.0679233,VALID,20.7255,VALID,345,VALID,0.00628811,
2007-03-23, 03:00:00,VALID,918.065,VALID,0,VALID,100,VALID,-0.0849042,VALID,20.7155,INVALID,360,VALID,0,
2007-03-23, 03:01:00,VALID,918.053,VALID,0,VALID,100,VALID,-0.0509425,VALID,20.7188,VALID,345,VALID,0,
2007-03-23, 03:02:00,VALID,918.047,VALID,0,VALID,100,VALID,-0.0849042,VALID,20.7223,VALID,345,VALID,0,
2007-03-23, 03:03:00,VALID,918.054,VALID,0,VALID,100,VALID,-0.0509425,VALID,20.7223,VALID,345,VALID,0,
2007-03-23, 03:04:00,VALID,918.049,VALID,0,VALID,100,VALID,-0.101885,VALID,20.7353,VALID,345,VALID,0,
2007-03-23, 03:05:00,VALID,918.04,VALID,0,VALID,100,VALID,-0.0679233,VALID,20.7388,INVALID,360,VALID,0,
2007-03-23, 03:06:00,VALID,918.042,VALID,0,VALID,100,VALID,-0.0509425,VALID,20.7383,VALID,345,VALID,0,
2007-03-23, 03:07:00,VALID,918.032,VALID,0,VALID,100,VALID,-0.101885,VALID,20.7418,VALID,345,VALID,0,
2007-03-23, 03:08:00,VALID,918.037,VALID,0,VALID,100,VALID,-0.0679233,VALID,20.7553,VALID,345,VALID,0.139353,
2007-03-23, 03:09:00,VALID,918.026,VALID,0,VALID,100,VALID,-0.101885,VALID,20.7612,VALID,348,VALID,0.269985,
2007-03-23, 03:10:00,VALID,918.032,VALID,0,VALID,100,VALID,-0.0849042,VALID,20.778,VALID,10,VALID,0.631288,
2007-03-23, 03:11:00,VALID,918.046,VALID,0,VALID,100,VALID,-0.101885,VALID,20.788,VALID,10,VALID,0.354514,
2007-03-23, 03:12:00,VALID,918.041,VALID,0,VALID,100,VALID,-0.101885,VALID,20.8072,VALID,10,VALID,0.291853,
2007-03-23, 03:13:00,VALID,918.061,VALID,0,VALID,100,VALID,-0.101885,VALID,20.8104,VALID,10,VALID,0.297396,
2007-03-23, 03:14:00,VALID,918.07,VALID,0,VALID,100,VALID,-0.0509425,VALID,20.7937,VALID,4,VALID,0.461319,
2007-03-23, 03:15:00,VALID,918.084,VALID,0,VALID,100,VALID,0,VALID,20.7564,VALID,350,VALID,0.766513,
2007-03-23, 03:16:00,VALID,918.081,VALID,0,VALID,100,VALID,-0.0169808,VALID,20.7183,VALID,2,VALID,0.715554,
2007-03-23, 03:17:00,VALID,918.063,VALID,0,VALID,100,VALID,0.0509425,VALID,20.7275,VALID,24,VALID,0.478981,
2007-03-23, 03:18:00,VALID,918.054,VALID,0,VALID,100,VALID,0.0169808,VALID,20.7342,VALID,21,VALID,0.817708,
2007-03-23, 03:19:00,VALID,918.034,VALID,0,VALID,100,VALID,0.0169808,VALID,20.7307,VALID,24,VALID,0.887336,
2007-03-23, 03:20:00,VALID,918.018,VALID,0,VALID,100,VALID,-0.0169808,VALID,20.7402,VALID,20,VALID,0.937309,
2007-03-23, 03:21:00,VALID,918.019,VALID,0,VALID,100,VALID,0,VALID,20.7507,VALID,20,VALID,0.915206,
2007-03-23, 03:22:00,VALID,917.999,VALID,0,VALID,100,VALID,0.0169808,VALID,20.7342,VALID,23,VALID,1.14276,
2007-03-23, 03:23:00,VALID,918.021,VALID,0,VALID,100,VALID,0.0169808,VALID,20.7175,VALID,15,VALID,0.789249,
2007-03-23, 03:24:00,VALID,918.021,VALID,0,VALID,100,VALID,0,VALID,20.7115,VALID,25,VALID,1.12003,
2007-03-23, 03:25:00,VALID,918.044,VALID,0,VALID,100,VALID,0,VALID,20.689,VALID,18,VALID,1.20219,
2007-03-23, 03:26:00,VALID,918.047,VALID,0,VALID,100,VALID,0.0169808,VALID,20.6566,VALID,28,VALID,1.12056,
2007-03-23, 03:27:00,VALID,918.044,VALID,0,VALID,100,VALID,0.0339617,VALID,20.6271,VALID,11,VALID,0.961787,
2007-03-23, 03:28:00,VALID,918.033,VALID,0,VALID,100,VALID,0.0339617,VALID,20.5847,VALID,358,VALID,1.44779,
2007-03-23, 03:29:00,VALID,918.053,VALID,0,VALID,100,VALID,0,VALID,20.562,VALID,9,VALID,0.897693,
2007-03-23, 03:30:00,VALID,918.046,VALID,0,VALID,100,VALID,0.0169808,VALID,20.5687,VALID,35,VALID,0.655692,
2007-03-23, 03:31:00,VALID,918.052,VALID,0,VALID,100,VALID,0,VALID,20.5849,VALID,17,VALID,0.59013,
2007-03-23, 03:32:00,VALID,918.057,VALID,0,VALID,100,VALID,0,VALID,20.5917,VALID,12,VALID,0.486328,
2007-03-23, 03:33:00,VALID,918.058,VALID,0,VALID,100,VALID,0.0339617,VALID,20.5949,VALID,14,VALID,0.682355,
2007-03-23, 03:34:00,VALID,918.054,VALID,0,VALID,100,VALID,0.0169808,VALID,20.5684,VALID,17,VALID,0.757457,
2007-03-23, 03:35:00,VALID,918.05,VALID,0,VALID,100,VALID,0.0169808,VALID,20.5657,VALID,16,VALID,0.668636,
2007-03-23, 03:36:00,VALID,918.039,VALID,0,VALID,100,VALID,0.0169808,VALID,20.543,VALID,23,VALID,0.89375,
2007-03-23, 03:37:00,VALID,918.041,VALID,0,VALID,99.9639,VALID,0,VALID,20.5365,VALID,22,VALID,1.37928,
2007-03-23, 03:38:00,VALID,918.035,VALID,0,VALID,99.793,VALID,0,VALID,20.507,VALID,15,VALID,1.07946,
2007-03-23, 03:39:00,VALID,918.03,VALID,0,VALID,99.8286,VALID,0.0169808,VALID,20.52,VALID,15,VALID,0.845312,
2007-03-23, 03:40:00,VALID,918.033,VALID,0,VALID,99.9265,VALID,-0.0169808,VALID,20.5365,VALID,14,VALID,0.753711,
2007-03-23, 03:41:00,VALID,918.032,VALID,0,VALID,99.924,VALID,0,VALID,20.5465,VALID,13,VALID,0.55522,